Location: Newark
(35.9031°N, 139.7175°E)
Time: 03:37:42
(UTC+00:00)

Transit 2A Rocket - Visible Passes

Search period start: 28 May 2020 00:00
Search period end: 07 June 2020 00:00
Orbit: 585 x 918 km, 66.7° (Epoch: 27 May)

Date Brightness Start Highest point End Pass type
(mag) Time Alt. Az. Time Alt. Az. Time Alt. Az.
28 May 6.5 12:39:00 22° ENE 12:39:00 22° ENE 12:41:20 10° NE visible
28 May 6.6 14:18:51 27° WNW 14:19:15 27° NW 14:23:51 10° N visible
29 May 6.9 11:56:44 14° ENE 11:56:44 14° ENE 11:57:50 10° ENE visible
29 May 5.7 13:36:35 47° NW 13:36:35 47° NW 13:41:41 10° NNE visible
30 May 4.9 12:54:10 78° N 12:54:10 78° N 12:59:14 10° NNE visible
30 May 7.7 14:35:15 10° WNW 14:37:24 12° NW 14:39:37 10° NNW visible
31 May 5.0 12:11:32 51° ESE 12:11:32 51° ESE 12:16:32 10° NE visible
31 May 7.3 13:51:20 13° W 13:54:21 20° NW 13:58:19 10° N visible
01 Jun 5.8 11:28:38 27° ESE 11:29:03 27° ESE 11:33:26 10° NE visible
01 Jun 6.5 13:08:25 18° WSW 13:11:27 33° NW 13:16:21 10° N visible
02 Jun 6.5 10:45:19 13° ESE 10:46:52 14° ESE 10:49:34 10° ENE visible
02 Jun 5.4 12:25:03 17° SW 12:28:43 58° WNW 12:34:05 10° NNE visible
03 Jun 4.8 11:41:17 10° SSW 11:46:08 78° ESE 11:51:34 10° NNE visible
03 Jun 7.7 13:26:36 10° W 13:29:31 15° NW 13:32:34 10° N visible
04 Jun 5.3 10:59:11 10° S 11:03:44 41° ESE 11:08:44 10° NE visible
04 Jun 7.2 12:42:26 10° WSW 12:46:31 24° NW 12:50:55 10° N visible
05 Jun 6.1 10:17:43 10° SSE 10:21:28 22° ESE 10:25:28 10° NE visible
05 Jun 6.3 11:59:00 10° SW 12:03:40 40° NW 12:08:50 10° NNE visible
06 Jun 5.2 11:16:05 10° SSW 11:20:59 72° WNW 11:26:28 10° NNE visible
06 Jun 8.2 13:03:21 10° NW 13:04:44 11° NW 13:06:09 10° NNW visible
